Flag for Germany Weather past 2 weeks in Baden-Baden, Baden-Württemberg, Germany

Now
57 °F

Fog.


Feels Like: 57 °F
Forecast: 51 / 69 °F
Wind: 2 mph from North

Location: Karlsruhe - Baden Wurttemberg

Current Time: Oct 1, 2014 at 11:09:47 AM

Latest Report: Oct 1, 2014 at 10:20 AM


Visibility: 0 mi

Pressure: 30.33 "Hg

Humidity: 94%

Dew point: 55 °F

Location of Baden-BadenLocation

Historic Weather in Baden-Baden — Graph

°F

Baden-Baden temperature yesterday

Maximum temperature yesterday: 70 °F (at 3:20 PM)
Minimum temperature yesterday: 57 °F (at 10:50 PM)
Average temperature yesterday: 64 °F

Past Weeks' High & Low Weather Summary

 TemperatureHumidityPressure
High79 °F (Sep 19, 2:50 PM)100% (Sep 23, 5:20 AM)30.36 "Hg (Sep 23, 5:20 AM)
Low41 °F (Sep 23, 7:20 AM)40% (Sep 26, 4:50 PM)29.83 "Hg (Sep 17, 4:20 PM)
Average61 °F78%30.10 "Hg
* Reported Sep 16 9:20 AM — Oct 1 9:50 AM, Baden-Baden, Weather by CustomWeather, © 2014

Note: Actual official high and low records may vary slightly from our data, if they occured in-between our weather recording intervals... More about our weather records

Advertising

Baden-Baden weather history for previous 24 hours

 ConditionsComfort  
Time TempWeatherWind HumidityBarometerVisibility
9:50 AM
Oct 1
57 °FFog.3 mph94%30.33 "Hg1 mi
9:20 AM57 °FFog.3 mph94%30.33 "Hg1 mi
8:50 AM57 °FFog.No wind88%30.33 "Hg1 mi
8:20 AM55 °FFog.No wind94%30.30 "Hg1 mi
7:50 AM55 °FFog.No wind94%30.30 "Hg1 mi
7:20 AM55 °FFog.1 mph94%30.30 "Hg1 mi
6:50 AM55 °FFog.1 mph94%30.30 "Hg1 mi
6:20 AM55 °FFog.No wind88%30.30 "Hg1 mi
5:50 AM55 °FFog.No wind88%30.30 "Hg0 mi
5:20 AM54 °FLow clouds.2 mph94%30.30 "Hg1 mi
4:50 AM52 °FFog.2 mph94%30.30 "Hg1 mi
11:20 PM
Sep 30
57 °FFog.1 mph94%30.30 "HgN/A
10:50 PM57 °FFog.2 mph94%30.30 "HgN/A
10:20 PM59 °FFog.2 mph88%30.30 "HgN/A
9:50 PM59 °FClear.No wind94%30.30 "Hg10 mi
9:20 PM61 °FClear.1 mph88%30.30 "Hg10 mi
8:50 PM61 °FClear.1 mph88%30.30 "Hg6 mi
8:20 PM61 °FClear.No wind94%30.30 "Hg10 mi
7:50 PM63 °FSunny.1 mph88%30.27 "Hg10 mi
7:20 PM64 °FSunny.No wind83%30.27 "Hg10 mi
6:50 PM66 °FSunny.1 mph78%30.27 "Hg10 mi
6:20 PM68 °FSunny.2 mph73%30.27 "Hg10 mi
5:50 PM68 °FSunny.No wind73%30.27 "Hg10 mi
5:20 PM68 °FPartly sunny.1 mph73%30.27 "HgN/A
4:50 PM68 °FBroken clouds.No wind73%30.30 "HgN/A
4:20 PM68 °FBroken clouds.2 mph73%30.30 "HgN/A
3:50 PM68 °FBroken clouds.2 mph69%30.30 "HgN/A
3:20 PM70 °FBroken clouds.3 mph64%30.30 "HgN/A
2:50 PM68 °FBroken clouds.2 mph69%30.30 "HgN/A
2:20 PM68 °FBroken clouds.2 mph69%30.30 "HgN/A
1:50 PM68 °FBroken clouds.2 mph73%30.30 "HgN/A
1:20 PM68 °FBroken clouds.3 mph73%30.30 "HgN/A
12:50 PM68 °FBroken clouds.1 mph73%30.30 "HgN/A
12:20 PM66 °FPartly sunny.2 mph78%30.30 "HgN/A
11:50 AM64 °FPartly sunny.2 mph83%30.30 "HgN/A
11:20 AM64 °FPartly sunny.1 mph83%30.30 "HgN/A
Weather by CustomWeather, © 2014

See weather overviewHow to use our weather pages